Terminal Aerodrome Forecast
Issued by NWS Omaha/Valley, NE

Home | Current Version | Previous Version | Text Only | Print | Product List | Glossary On
Versions: 1 2 3 4 5 6 7 8 9 10 11 12 13 14 15 16 17 18 19 20 21 22 23 24 25 26 27 28 29 30 31 32 33 34 35 36 37 38 39 40 41 42 43 44 45 46 47 48 49 50
393
FTUS43 KOAX 080538
TAFOMA
TAF
KOMA 080538Z 0806/0906 33022G32KT P6SM OVC040
      TEMPO 0806/0808 4SM -SN OVC025
     FM081500 33028G38KT P6SM OVC025
     FM090000 33020G30KT P6SM BKN050=

USA.gov is the U.S. government's official web portal to all federal, state and local government web resources and services.